#timestamp,LO_Frequency,Hit,StdDev 
1513339215.3,286046982.8,N
1513339235.1,286046985.1,N
1513339255.8,286046981.1,N
1513339275.7,286046981.8,Y
1513339295.5,286046987.0,P
1513339315.3,286046987.7,P
1513339335.2,286046989.1,P
1513339355.0,286046987.4,Y
1513339355.9,286046987.4,P
1513339375.8,286046997.2,P
1513339395.6,286046999.5,N
1513339415.4,286047002.3,N
1513339435.2,286047002.8,N
1513339455.1,286047004.2,N
1513339456.0,286047004.2,N
1513339475.8,286047003.3,N
1513339495.6,286047004.8,N
1513339515.5,286047005.0,N
1513339535.3,286047003.4,N
1513339555.1,286047001.3,N
1513339575.9,286047005.2,N
1513339595.7,286047009.2,N
1513339615.5,286047009.5,N
1513339635.4,286047014.7,N
1513339655.2,286047018.6,N
1513339675.0,286047020.5,N
1513339675.9,286047020.5,N
1513339695.8,286047024.8,N
1513339715.6,286047027.9,N
1513339735.4,286047029.9,N
1513339755.2,286047029.3,N
1513339775.1,286047031.3,N
1513339776.0,286047031.3,N
1513339795.8,286047025.5,N
1513339815.6,286047023.3,N
1513339835.5,286047026.6,N
1513339855.3,286047026.9,N
1513339875.1,286047024.1,N
1513339895.9,286047025.0,N
1513339915.7,286047026.3,N
1513339935.5,286047026.1,N
1513339955.4,286047024.3,N
1513339975.2,286047028.0,N
1513339995.0,286047027.3,N
1513339995.9,286047027.3,N
1513340015.8,286047030.4,Y
1513340035.6,286047010.4,P
1513340055.4,286047008.9,N
1513340075.3,286047004.7,N
1513340095.1,286047003.9,N
1513340096.0,286047003.9,N
1513340115.8,286047007.5,N
1513340135.6,286047008.0,N
1513340155.5,286047006.4,N
1513340175.3,286047007.3,N
1513340195.1,286047005.8,N
1513340215.9,286047003.6,N
1513340235.7,286047001.7,N
1513340255.5,286047001.5,N
1513340275.4,286047001.9,N
1513340295.2,286047005.5,N
1513340315.0,286047004.1,N
1513340315.9,286047004.1,N
1513340335.8,286047003.9,N
1513340355.6,286047005.3,N
1513340375.4,286047006.0,N
1513340395.3,286047005.0,N
1513340415.1,286047005.1,N
1513340416.0,286047005.1,N
1513340435.8,286047006.1,N
1513340455.7,286047010.8,Y
1513340475.5,286046999.9,P
1513340495.3,286047002.3,N
1513340515.2,286047002.6,N
1513340535.9,286047003.1,N
1513340555.7,286047008.8,Y
1513340575.6,286047005.1,P
1513340595.4,286047003.9,P
1513340615.2,286047003.8,P
1513340635.1,286047004.0,Y
1513340636.0,286047004.0,P
1513340655.8,286046995.3,P
1513340675.6,286046996.6,N
1513340695.5,286046995.0,N
1513340715.3,286046992.0,N
1513340735.1,286046995.7,N
1513340755.8,286046999.5,N
1513340775.7,286046995.9,N
1513340795.5,286046993.1,N
1513340815.3,286046988.8,N
1513340835.2,286046989.5,N
1513340855.9,286046989.4,N
1513340875.7,286046996.3,N
1513340895.6,286046997.2,N
1513340915.4,286046998.9,N
1513340935.2,286046999.2,N
1513340955.1,286047004.2,N
1513340956.0,286047004.2,N
1513340975.8,286047004.4,N
1513340995.6,286047004.3,N
1513341015.4,286047002.2,N
1513341035.3,286047002.7,N
1513341055.1,286046998.3,N
1513341075.8,286046995.4,N
1513341095.7,286046994.9,N
1513341115.5,286046993.7,N
1513341135.3,286046996.3,N
1513341155.2,286046991.9,N
1513341175.9,286046993.2,N
1513341195.7,286046992.3,N
1513341215.6,286046990.2,N
1513341235.4,286046990.9,N
1513341255.2,286046991.7,N
1513341275.0,286046992.2,N
1513341276.0,286046992.2,N
1513341295.8,286046991.4,N
1513341315.6,286046990.8,N
1513341335.4,286046989.8,N
1513341355.3,286046993.0,N
1513341375.1,286046993.0,N
1513341395.8,286046988.7,N
1513341415.7,286046986.9,N
1513341435.5,286046988.2,N
1513341455.3,286046992.7,N
1513341475.2,286046992.5,N
1513341495.9,286046994.3,N
1513341515.7,286046994.1,N
1513341535.6,286046996.0,N
1513341555.4,286046995.8,N
1513341575.2,286046994.4,N
1513341595.1,286046989.2,Y
1513341596.0,286046989.2,P
1513341615.8,286046999.1,N
1513341635.6,286046999.0,N
1513341655.5,286046997.7,N
1513341675.3,286047000.4,N
1513341695.1,286046998.2,N
1513341715.9,286046995.1,N
1513341735.7,286046998.7,N
1513341755.5,286046998.9,N
1513341775.3,286047001.7,N
1513341795.2,286047002.9,N
1513341815.9,286047005.9,N
1513341835.7,286047005.2,N
1513341855.6,286047007.8,N
1513341875.4,286047006.2,N
1513341895.2,286047010.2,N
1513341915.1,286047009.8,N
1513341916.0,286047009.8,N
1513341935.8,286047011.0,N
1513341955.6,286047015.9,N
1513341975.5,286047018.2,N
1513341995.3,286047021.4,N
1513342015.1,286047023.2,N
1513342035.8,286047021.7,N
1513342055.7,286047021.0,N
1513342075.5,286047022.0,N
1513342095.3,286047018.6,N
1513342115.2,286047019.1,N
1513342135.9,286047019.7,N
1513342155.7,286047017.4,N
1513342175.6,286047016.1,N
1513342195.4,286047021.0,N
1513342215.2,286047019.5,N
1513342235.1,286047020.3,N
1513342236.0,286047020.3,N
1513342255.8,286047014.3,N
1513342275.6,286047015.6,N
1513342295.4,286047015.4,N
1513342315.3,286047014.1,N
1513342335.1,286047014.5,N
1513342355.8,286047014.9,N
1513342375.7,286047011.2,N
1513342395.5,286047009.7,N
1513342415.3,286047012.6,N
1513342435.2,286047009.3,N
1513342455.9,286047013.1,Y
1513342475.7,286046996.1,P
1513342495.6,286046996.0,N
1513342515.4,286046997.1,N
1513342535.2,286046995.7,N
1513342555.1,286046993.6,N
1513342556.0,286046993.6,N
1513342575.8,286046997.8,N
1513342595.6,286046993.9,N
1513342615.5,286046992.4,N
1513342635.3,286046994.3,N
1513342655.1,286046994.6,N
1513342675.8,286046997.2,N
1513342695.7,286046995.0,N
1513342715.5,286046997.3,N
1513342735.3,286046995.9,N
1513342755.2,286046999.2,N
1513342775.9,286047001.1,N
1513342795.7,286046999.8,N
